Location: Asheville, NC
(35.6000°N, 82.5500°W)
Time: 09:14:57
(UTC-04:00)

Vanguard 2 Rocket - Pass Details

Date: 10 December 2017
Orbit: 553 x 3328 km, 32.9° (Epoch: 25 April)

Event Time Altitude Azimuth Distance (km) Brightness Sun altitude
Exits shadow 02:29:57 26° 141° (SE) 4,141 10.1 -59.7°
Drops below altitude 10° 02:34:32 10° 133° (SE) 4,966 10.8 -58.8°
Sets 02:37:49 0° 130° (SE) 5,660 11.2 -58.2°
